Vertical_Velocity
-4 -2 1 3 2 -1 -4 -7 5 12 15 12 6 -0 -5 -8 -10 -9 -8 -5 -3 -0 2 3 4 5 6 6 6 7 8 8 7 6 5 5 4 4 5 7 8 7 6 4 4 3 2 -0 0 3 6 5 10 13 14 13 10 5 2 -0 -1 -0 1 1 -1 -3 -3 -1 -1
-2 0 2 3 1 -2 -5 -7 4 12 15 11 4 -1 -5 -8 -8 -6 -4 -2 -0 1 2 3 3 4 4 4 4 5 5 5 4 3 4 4 5 5 5 6 6 6 5 4 2 0 -0 -0 -0 -1 -2 -4 1 6 11 16 16 13 9 5 4 4 4 4 2 -1 -2 -3 -1
-2 -0 1 2 -1 -3 -3 -1 4 8 8 6 4 4 3 0 -3 -4 -4 -2 0 3 4 4 2 2 2 2 3 3 2 0 -1 -1 -0 1 1 2 3 3 4 4 4 3 0 -2 -3 -2 -2 -4 -5 -6 -4 -1 2 6 8 9 8 6 6 6 5 3 1 -1 -2 -4 -2
-3 -1 0 1 0 1 4 8 9 9 8 7 8 9 11 11 9 5 1 -1 4 8 11 8 3 2 2 4 4 3 2 1 -1 -2 -3 -2 -2 -1 -1 -1 -0 0 1 1 -0 -2 -3 -3 -4 -4 -4 -5 -4 -3 -3 -2 -1 -0 -0 -1 1 2 2 2 1 0 -1 -1 0
-4 -2 -0 2 3 5 7 9 10 12 12 12 12 12 13 15 17 16 14 11 12 15 18 16 9 5 4 6 5 4 3 2 -0 -2 -2 -2 -2 -3 -3 -3 -4 -3 -2 -0 0 0 -0 -1 -2 -2 -1 -0 -0 -1 -2 -3 -3 -4 -5 -5 -2 -2 -1 0 1 3 3 3 2
-4 -3 -0 2 4 4 4 5 8 11 12 12 11 11 12 13 16 18 19 20 21 22 23 20 11 4 1 2 5 8 10 12 9 6 1 -3 -4 -5 -5 -5 -5 -4 -2 -0 1 3 3 4 4 5 5 6 6 4 1 -1 -2 -4 -5 -5 -4 -3 -3 -2 -2 -2 -2 -4 -5
-3 -1 2 5 5 5 4 4 5 5 4 3 3 3 4 6 10 15 19 22 27 29 26 18 8 -1 -5 -6 2 12 20 26 27 21 11 -2 -6 -7 -7 -6 -4 -2 -1 -1 0 1 3 5 6 6 6 7 8 7 4 1 -2 -5 -7 -7 -6 -4 -4 -5 -7 -7 -8 -10 -10
4 9 12 13 15 16 15 9 3 1 -0 -0 -1 -1 -1 2 8 15 23 30 34 32 25 13 3 -3 -6 -7 2 10 17 19 20 13 4 -6 -8 -9 -8 -6 -2 -1 -1 -3 -1 2 4 5 6 4 2 1 5 5 2 -2 -2 -0 1 1 3 5 6 3 -2 -5 -6 -7 -8
14 16 16 14 14 15 13 7 0 -3 -3 -2 -1 -2 -2 1 5 12 18 24 23 19 11 4 -0 -1 2 6 8 7 4 1 -0 -4 -7 -9 -9 -8 -6 -2 1 0 -3 -6 -1 3 6 9 8 4 -0 -3 -1 -2 -4 -6 -1 5 9 11 13 14 12 8 4 0 -2 -4 -5
12 12 11 8 5 4 2 -2 -5 -6 -5 -4 -3 -4 -4 -4 -3 -1 1 4 4 2 -1 -2 -0 4 9 12 7 2 -3 -6 -5 -5 -5 -4 -1 1 5 10 8 4 0 -5 -3 1 5 10 10 7 1 -4 -4 -5 -5 -5 -1 3 8 11 10 10 9 7 1 -1 -1 -0 -1
8 10 11 8 4 1 -2 -4 -5 -4 -4 -2 -2 -3 -4 -5 -6 -7 -7 -5 -4 -3 -3 -2 1 5 9 8 3 -0 -3 -5 -4 -4 -3 0 6 8 9 9 8 7 5 2 -2 -2 2 8 10 9 5 -1 -2 -3 -3 -2 -1 2 4 6 7 6 4 0 -3 -4 -3 -0 1
9 13 12 8 2 -1 -4 -4 -4 -3 -2 0 0 -0 -1 -2 -1 -2 -3 -2 -0 -0 -1 -2 -0 3 6 6 3 -0 -3 -4 -4 -4 -2 -1 2 4 4 4 4 4 4 4 -0 -2 -1 2 5 6 4 1 0 1 1 2 2 1 0 0 2 4 5 2 0 -2 -3 -3 -2
5 8 7 3 -2 -5 -6 -5 -2 -0 1 3 4 4 4 3 3 1 -0 -0 1 1 1 0 -0 -0 -0 0 2 3 4 3 3 3 4 4 5 6 7 7 6 5 4 2 0 -1 -1 -1 1 2 1 -1 0 2 4 5 4 2 0 -1 0 1 2 3 2 0 -2 -3 -3
-3 -1 -1 -2 -4 -4 -2 0 2 4 5 7 8 9 9 9 7 4 1 -1 -1 -1 -1 -0 -0 -1 -1 -1 -1 1 3 7 9 11 12 13 14 15 16 15 13 10 8 6 4 4 3 3 3 3 2 1 1 3 5 7 6 5 4 4 2 1 -0 0 0 -0 -0 -1 -1
-6 -6 -6 -4 -2 1 4 6 7 7 8 8 10 11 11 11 9 6 2 -1 -3 -3 -2 -0 0 1 1 1 0 0 1 2 4 5 7 10 14 15 16 15 13 12 11 10 9 9 10 11 10 9 8 7 7 8 10 12 12 12 11 9 7 5 3 2 2 3 5 6 6
-5 -5 -4 -2 0 4 7 8 8 8 8 8 9 9 9 9 7 5 2 -1 -3 -3 -3 -1 0 1 2 2 2 2 2 1 0 0 0 2 4 5 6 6 6 5 5 5 6 8 9 11 11 11 11 10 10 10 10 11 11 12 13 13 12 11 10 9 8 9 11 12 13
-0 -1 -0 0 2 4 6 8 8 9 9 9 8 7 6 5 4 2 0 -1 -3 -3 -2 -1 -1 0 1 1 1 1 2 2 2 1 -0 -1 -2 -2 -1 -1 -1 -1 -1 -1 0 2 3 4 5 6 6 6 6 5 5 4 4 4 4 5 6 7 8 9 10 11 12 13 14
2 2 2 3 3 4 5 7 8 9 9 9 8 6 5 4 3 1 0 -1 -1 -0 0 1 1 1 1 1 1 1 1 1 1 1 0 -1 -1 -1 -1 -1 -2 -2 -2 -1 -0 1 1 2 2 3 3 3 2 2 2 1 0 -0 -1 -1 -0 1 2 4 5 7 8 11 12
-1 0 1 1 2 3 3 4 5 6 6 6 6 6 6 6 5 4 3 2 2 4 5 6 6 6 6 5 4 4 4 4 3 3 2 1 1 2 3 4 4 4 4 4 4 4 4 4 4 4 3 3 2 2 1 0 -0 -0 -1 -1 -0 0 1 2 2 3 4 8 12
-4 -3 -3 -2 -2 -1 0 1 2 2 2 2 2 2 2 2 3 3 3 4 4 6 7 8 8 8 9 9 9 9 9 9 9 8 8 7 7 7 7 8 8 8 7 6 5 4 4 4 4 4 4 3 3 2 1 0 0 0 0 1 1 1 1 2 1 1 1 3 8
-6 -5 -5 -4 -3 -2 -1 -1 -1 -1 -1 -1 -1 -2 -2 -2 -1 -0 0 1 2 2 3 3 3 4 5 6 8 9 10 11 12 12 11 11 10 9 8 7 7 6 4 3 2 2 2 2 3 3 2 2 1 1 0 0 0 0 1 1 1 1 1 1 1 0 0 0 2
-4 -4 -4 -4 -3 -3 -2 -2 -2 -2 -2 -3 -3 -3 -3 -3 -3 -2 -2 -2 -2 -1 -2 -2 -2 -2 -1 -1 1 2 4 5 6 7 7 6 5 5 4 3 3 2 1 -0 1 2 4 5 4 3 2 1 0 -0 -1 -0 -0 0 0 1 1 1 1 0 0 -0 -0 -1 -1
-2 -2 -3 -3 -2 -2 -2 -2 -2 -2 -3 -3 -3 -3 -3 -3 -3 -3 -3 -3 -3 -3 -3 -4 -3 -3 -4 -4 -4 -4 -3 -3 -2 -1 -1 -1 -2 -2 -2 -2 -2 -2 -1 -2 -1 1 3 4 3 2 1 -1 -1 -1 -2 -1 -1 -0 0 1 1 1 1 -0 -1 -1 -1 -1 -1
-2 -2 -2 -2 -2 -2 -2 -2 -2 -2 -2 -3 -3 -3 -4 -4 -4 -4 -4 -4 -3 -3 -3 -3 -3 -3 -3 -3 -4 -4 -5 -5 -5 -4 -4 -4 -4 -4 -4 -4 -3 -3 -2 -2 -1 -1 -0 -0 -1 -1 -2 -2 -2 -2 -2 0 3 4 4 3 4 4 3 1 -1 -1 -1 -1 -1
-2 -2 -2 -1 -1 -1 -1 -1 -1 -1 -1 -2 -2 -3 -3 -4 -4 -4 -4 -4 -4 -3 -3 -2 -2 -2 -2 -2 -2 -2 -3 -3 -3 -4 -4 -4 -4 -3 -2 -2 -2 -1 -1 -1 -1 -2 -2 -3 -3 -3 -3 -3 -3 -3 -2 -2 2 4 6 6 6 6 5 2 -0 -1 -1 0 0
-3 -2 -2 -2 -2 -1 -1 -1 -1 -1 -1 -1 -1 -1 -2 -2 -2 -2 -3 -3 -3 -3 -3 -2 -2 -2 -2 -1 -1 -1 -1 -1 -1 -2 -2 -2 -2 -2 -2 -1 -1 -0 0 0 -1 -2 -2 -3 -4 -4 -4 -3 -3 -3 -2 -2 -1 0 1 1 2 2 1 -0 -1 -1 -1 0 2
-2 -2 -2 -2 -2 -2 -2 -2 -2 -1 -1 -1 -0 -0 -0 -0 -0 -0 -1 -1 -1 -1 -2 -2 -2 -2 -2 -1 -1 -1 -1 -1 -0 -0 -0 0 -0 -0 -0 -0 -0 0 1 1 0 -0 -1 -2 -2 -3 -3 -4 -3 -3 -2 -1 -0 0 0 0 -0 -0 -1 -1 -1 -1 -1 -1 -0
-0 -1 -1 -2 -2 -2 -3 -3 -3 -3 -2 -2 -1 -1 -1 -0 -0 0 0 -0 -0 -0 -0 -0 -1 -1 -1 -1 -1 -1 -1 -1 -0 0 0 1 1 1 2 2 2 2 2 2 2 1 1 -0 -1 -2 -2 -3 -3 -2 -2 -1 0 1 1 1 1 0 0 -0 -0 -0 -0 -1 -1
1 1 0 -0 -1 -1 -1 -2 -2 -2 -3 -3 -3 -2 -2 -2 -1 -0 -0 0 0 1 1 1 1 1 1 0 -0 -1 -1 -1 -1 -1 -1 -0 -0 0 1 2 3 3 3 3 3 3 2 2 1 0 -1 -2 -2 -1 -1 0 0 1 1 1 1 1 1 0 0 -0 -0 -0 -0
1 1 1 1 1 1 1 0 -0 -1 -1 -2 -2 -2 -2 -2 -2 -1 -1 -0 -0 0 1 1 2 2 2 1 1 1 1 0 -1 -1 -2 -1 -1 -1 -0 0 1 2 2 2 2 2 2 2 2 1 1 -0 -1 -1 -0 0 1 1 1 2 2 2 1 1 0 0 -0 0 0
0 0 0 0 1 1 1 1 1 1 1 0 0 -0 -1 -1 -1 -1 -1 -0 -0 -0 -0 0 1 1 1 1 1 2 2 2 1 0 -0 -1 -0 -0 -0 0 0 0 -0 -0 -1 -0 0 1 1 1 1 0 -0 -1 -1 0 1 1 1 2 2 3 2 2 1 0 0 0 0
-1 -1 -1 -1 -1 -0 -0 0 1 1 1 1 1 1 1 1 0 0 0 0 0 -0 -0 -0 -0 -0 -0 -0 0 1 1 1 1 1 1 1 1 1 1 2 1 0 -1 -1 -2 -2 -2 -1 -1 -1 -1 -1 -2 -2 -1 -0 0 1 1 2 3 3 3 2 2 1 1 1 1
-3 -3 -3 -3 -2 -2 -2 -2 -2 -1 -1 -1 -1 -0 0 1 1 1 1 1 1 1 0 0 -0 -0 -1 -1 -0 -0 0 -0 -0 -0 0 0 1 1 2 3 3 2 1 -0 -1 -2 -2 -2 -2 -2 -2 -3 -3 -3 -2 -1 -1 -0 0 1 2 3 3 3 3 2 2 2 2
-4 -4 -4 -4 -4 -4 -4 -4 -4 -4 -4 -4 -4 -3 -3 -2 -2 -1 -1 -0 0 0 0 0 0 0 -0 -0 -0 0 -0 -0 -1 -1 -1 -1 -1 -0 1 2 2 2 2 1 1 0 -0 -1 -2 -2 -3 -4 -4 -4 -3 -2 -2 -2 -1 -0 1 2 3 3 3 3 3 3 2
-2 -2 -2 -2 -3 -3 -3 -3 -4 -4 -4 -4 -5 -5 -5 -5 -5 -5 -4 -3 -2 -2 -1 -1 -1 -0 -0 0 0 0 0 -0 -0 -1 -1 -2 -2 -1 -0 1 2 2 2 1 1 1 1 0 -0 -1 -2 -4 -4 -4 -3 -3 -3 -3 -2 -1 -0 1 2 2 2 2 2 2 2
1 1 1 0 0 -0 -0 -0 -1 -1 -2 -2 -3 -3 -3 -4 -5 -5 -5 -4 -4 -3 -4 -4 -3 -3 -2 -1 -1 -1 -0 -1 -0 -0 -0 -1 -1 -1 -0 1 2 2 1 0 0 0 1 1 1 -0 -1 -3 -3 -3 -3 -4 -4 -3 -3 -2 -2 -1 1 1 1 1 1 1 1
4 4 3 3 2 2 2 2 2 1 1 1 0 0 0 -0 -1 -2 -2 -2 -2 -3 -3 -3 -4 -4 -4 -4 -3 -2 -2 -2 -2 -2 -1 -1 -1 -1 -0 1 3 3 2 1 -0 -0 0 1 1 0 -0 -2 -2 -2 -3 -3 -4 -4 -3 -3 -2 -1 -0 0 -0 -1 -0 0 0
3 3 3 2 2 2 2 1 1 1 1 1 1 1 1 1 1 0 -0 -0 -0 -0 -1 -0 -1 -2 -3 -3 -2 -2 -3 -4 -4 -4 -4 -3 -2 -2 -1 0 2 3 3 2 1 0 0 1 1 0 -0 -1 -2 -2 -2 -3 -3 -3 -3 -3 -3 -2 -1 0 -1 -1 -1 -1 -0
-2 -2 -2 -2 -2 -2 -2 -3 -3 -3 -3 -3 -3 -3 -3 -2 -2 -2 -2 -2 -2 -1 -1 -0 0 0 -0 -0 0 0 -0 -1 -2 -4 -4 -4 -4 -3 -3 -2 -0 2 3 3 1 1 0 1 1 0 -0 -1 -2 -2 -2 -2 -3 -3 -3 -3 -3 -2 -2 -0 -1 -2 -2 -2 -0
-7 -7 -7 -7 -7 -7 -7 -8 -8 -8 -8 -8 -8 -8 -8 -7 -7 -7 -7 -6 -6 -6 -6 -5 -4 -3 -2 -2 -1 0 1 2 1 0 -1 -2 -3 -3 -2 -3 -2 -0 1 2 1 0 0 0 1 0 -0 -1 -2 -2 -2 -2 -2 -2 -2 -1 -2 -2 -3 -2 -1 -1 -2 -2 -1
-8 -8 -9 -9 -9 -9 -9 -10 -10 -10 -10 -10 -10 -10 -10 -10 -10 -10 -10 -10 -10 -10 -10 -9 -9 -8 -8 -7 -7 -5 -4 -1 0 1 0 -0 -0 -0 -0 -1 -1 -0 1 2 1 1 0 0 0 0 -0 -1 -2 -3 -2 -2 -2 -2 -1 -0 -0 -1 -2 -3 -1 -1 -1 -1 -1
Height
3024 3025 3026 3027 3028 3028 3029 3029 3030 3031 3032 3032 3033 3033 3034 3035 3035 3036 3037 3038 3038 3039 3040 3041 3042 3042 3043 3044 3045 3047 3048 3050 3052 3054 3055 3057 3059 3060 3062 3063 3064 3065 3066 3067 3068 3069 3070 3071 3071 3071 3072 3073 3074 3075 3075 3076 3077 3078 3079 3080 3080 3082 3083 3084 3085 3086 3088 3089 3090
3023 3025 3025 3026 3027 3027 3027 3028 3029 3030 3031 3032 3032 3032 3033 3033 3034 3035 3036 3036 3037 3037 3038 3038 3039 3040 3041 3042 3043 3045 3046 3048 3050 3052 3054 3055 3057 3058 3060 3061 3062 3063 3064 3065 3065 3066 3067 3068 3069 3070 3070 3071 3073 3073 3074 3074 3075 3075 3076 3077 3078 3079 3080 3080 3080 3081 3083 3085 3086
3023 3024 3025 3026 3026 3026 3026 3027 3028 3029 3030 3031 3031 3032 3033 3033 3033 3034 3034 3035 3035 3035 3035 3036 3036 3037 3039 3040 3041 3043 3044 3045 3047 3049 3051 3052 3054 3055 3056 3058 3059 3060 3061 3062 3063 3063 3064 3066 3067 3068 3069 3070 3071 3072 3072 3072 3073 3073 3073 3074 3075 3076 3077 3077 3077 3078 3079 3080 3082
3022 3023 3024 3025 3025 3025 3026 3026 3028 3029 3029 3030 3031 3032 3033 3033 3033 3033 3033 3033 3033 3034 3034 3034 3035 3035 3037 3039 3040 3041 3042 3044 3045 3046 3048 3049 3051 3052 3053 3055 3056 3057 3059 3060 3060 3061 3062 3063 3065 3065 3066 3067 3069 3069 3070 3070 3070 3070 3070 3071 3072 3073 3073 3074 3075 3076 3077 3079 3080
3021 3022 3023 3024 3024 3025 3025 3026 3027 3028 3029 3030 3030 3031 3031 3032 3033 3033 3033 3032 3032 3033 3033 3034 3034 3035 3036 3038 3039 3040 3041 3042 3043 3045 3046 3047 3048 3049 3051 3052 3053 3055 3056 3058 3059 3060 3061 3061 3062 3063 3064 3065 3066 3066 3067 3067 3068 3068 3068 3068 3069 3070 3070 3071 3072 3074 3076 3077 3078
3020 3021 3022 3023 3023 3024 3025 3025 3026 3027 3028 3028 3029 3029 3029 3030 3031 3031 3032 3032 3032 3032 3032 3033 3033 3034 3035 3037 3038 3039 3040 3041 3042 3043 3044 3045 3046 3047 3049 3050 3051 3053 3055 3056 3057 3058 3059 3060 3061 3061 3062 3062 3063 3063 3064 3065 3065 3065 3066 3067 3067 3068 3069 3070 3071 3072 3073 3074 3075
3019 3020 3021 3022 3022 3023 3023 3024 3025 3025 3025 3025 3026 3027 3028 3028 3029 3029 3029 3030 3030 3031 3031 3031 3031 3032 3034 3035 3037 3038 3040 3041 3042 3043 3043 3043 3044 3046 3047 3049 3050 3052 3053 3054 3055 3056 3057 3058 3058 3059 3059 3060 3060 3060 3061 3062 3062 3063 3064 3065 3065 3066 3068 3068 3069 3070 3070 3070 3071
3018 3019 3020 3021 3021 3022 3023 3023 3023 3023 3023 3024 3025 3026 3027 3028 3028 3029 3029 3029 3030 3030 3030 3030 3030 3031 3033 3035 3036 3038 3039 3040 3041 3042 3042 3042 3043 3045 3046 3048 3049 3050 3051 3052 3053 3054 3054 3055 3055 3055 3056 3057 3057 3058 3059 3060 3060 3060 3061 3062 3064 3065 3065 3065 3066 3067 3068 3068 3069
3017 3018 3018 3019 3020 3020 3021 3021 3021 3021 3022 3023 3024 3025 3026 3026 3027 3027 3028 3028 3028 3028 3029 3029 3029 3031 3033 3035 3036 3038 3039 3040 3040 3040 3041 3042 3043 3044 3045 3046 3047 3049 3050 3050 3051 3051 3051 3052 3052 3053 3054 3055 3055 3056 3057 3058 3058 3058 3059 3060 3062 3062 3062 3062 3063 3064 3065 3065 3066
3014 3015 3016 3017 3017 3018 3019 3020 3020 3020 3021 3022 3023 3023 3024 3024 3024 3024 3024 3024 3025 3025 3026 3028 3029 3031 3034 3035 3035 3036 3038 3039 3039 3040 3041 3042 3043 3044 3045 3045 3046 3047 3048 3049 3049 3049 3050 3050 3051 3051 3052 3052 3053 3054 3055 3055 3056 3056 3057 3058 3058 3059 3059 3059 3060 3061 3062 3062 3063
3013 3014 3015 3016 3017 3018 3019 3020 3020 3021 3021 3022 3023 3023 3023 3023 3024 3024 3024 3024 3024 3025 3026 3027 3029 3031 3033 3034 3035 3036 3037 3037 3038 3039 3040 3041 3043 3043 3044 3044 3045 3045 3046 3046 3047 3048 3048 3048 3049 3049 3050 3050 3051 3051 3052 3053 3054 3054 3055 3055 3055 3056 3056 3056 3057 3058 3059 3059 3060
3012 3013 3014 3015 3016 3018 3019 3020 3021 3021 3022 3023 3023 3023 3023 3023 3023 3023 3024 3024 3024 3025 3026 3027 3029 3031 3032 3034 3034 3035 3035 3036 3037 3037 3038 3039 3040 3041 3042 3042 3043 3043 3043 3044 3045 3045 3046 3046 3047 3047 3048 3049 3049 3050 3050 3050 3051 3051 3052 3052 3053 3053 3054 3054 3055 3055 3056 3056 3057
3011 3012 3013 3015 3016 3018 3020 3020 3021 3022 3023 3023 3023 3023 3022 3022 3022 3022 3023 3024 3025 3025 3026 3028 3029 3030 3031 3033 3034 3035 3035 3035 3036 3036 3037 3038 3038 3039 3040 3040 3040 3041 3041 3042 3042 3043 3043 3044 3045 3045 3045 3046 3046 3047 3048 3048 3049 3049 3049 3049 3050 3050 3050 3051 3052 3052 3052 3053 3053
3011 3012 3014 3015 3017 3019 3020 3020 3021 3021 3022 3022 3022 3022 3021 3021 3021 3021 3021 3023 3024 3025 3026 3027 3029 3030 3030 3031 3033 3034 3035 3036 3036 3037 3037 3038 3038 3038 3039 3039 3039 3039 3040 3040 3040 3041 3041 3041 3042 3042 3042 3043 3044 3044 3045 3045 3046 3046 3046 3046 3046 3047 3047 3048 3048 3049 3049 3049 3049
3012 3013 3015 3016 3017 3019 3019 3020 3020 3020 3020 3020 3020 3020 3020 3020 3020 3020 3020 3022 3023 3024 3025 3027 3028 3029 3030 3030 3031 3032 3033 3035 3035 3036 3037 3037 3038 3038 3038 3038 3038 3038 3039 3039 3039 3040 3040 3040 3040 3040 3040 3041 3041 3042 3042 3043 3043 3044 3044 3044 3044 3044 3044 3044 3045 3045 3045 3046 3046
3013 3014 3015 3016 3017 3018 3018 3018 3019 3019 3019 3019 3019 3018 3018 3018 3018 3019 3020 3021 3022 3023 3025 3025 3026 3027 3028 3029 3030 3030 3031 3032 3033 3034 3035 3035 3036 3036 3037 3037 3037 3036 3036 3037 3037 3038 3038 3039 3039 3039 3039 3039 3039 3040 3040 3040 3040 3040 3041 3041 3041 3041 3041 3041 3042 3042 3043 3043 3043
3013 3014 3015 3016 3016 3017 3017 3017 3017 3017 3017 3017 3017 3017 3017 3017 3018 3018 3020 3020 3021 3022 3023 3024 3025 3025 3026 3027 3028 3029 3029 3030 3030 3031 3032 3032 3033 3033 3034 3034 3034 3034 3034 3035 3035 3035 3036 3036 3036 3036 3037 3037 3037 3037 3037 3037 3037 3037 3037 3037 3037 3038 3038 3038 3039 3039 3040 3040 3040
3013 3014 3015 3015 3015 3016 3016 3016 3016 3016 3016 3016 3016 3016 3016 3017 3017 3018 3019 3020 3021 3022 3023 3023 3024 3024 3025 3025 3026 3027 3027 3028 3028 3029 3029 3030 3030 3030 3030 3031 3031 3031 3032 3032 3032 3033 3033 3033 3033 3033 3033 3034 3034 3034 3034 3034 3034 3034 3034 3034 3034 3034 3034 3035 3035 3035 3036 3037 3037
3013 3013 3014 3014 3014 3015 3015 3015 3015 3015 3015 3015 3015 3015 3016 3016 3017 3018 3019 3020 3021 3021 3022 3022 3022 3023 3023 3024 3024 3025 3025 3026 3026 3027 3027 3027 3028 3028 3029 3029 3029 3029 3030 3030 3030 3030 3030 3030 3030 3030 3030 3030 3030 3030 3030 3031 3031 3031 3031 3031 3031 3031 3031 3031 3031 3032 3033 3034 3034
3012 3012 3013 3013 3014 3014 3014 3014 3014 3014 3014 3014 3014 3015 3015 3016 3017 3017 3018 3019 3019 3020 3020 3020 3021 3021 3022 3022 3023 3023 3024 3024 3024 3025 3025 3025 3025 3026 3026 3027 3027 3027 3027 3027 3027 3027 3027 3027 3027 3027 3027 3027 3027 3027 3028 3028 3028 3028 3028 3028 3028 3028 3028 3028 3028 3028 3029 3030 3031
3012 3012 3013 3013 3013 3013 3013 3013 3013 3013 3013 3014 3014 3014 3015 3015 3016 3016 3017 3017 3018 3018 3019 3019 3019 3020 3020 3020 3021 3021 3021 3022 3022 3022 3022 3023 3023 3024 3024 3024 3024 3024 3025 3025 3025 3025 3025 3025 3025 3025 3025 3025 3025 3025 3025 3025 3025 3025 3025 3025 3025 3025 3025 3025 3025 3025 3025 3026 3027
3012 3013 3013 3013 3013 3013 3013 3013 3013 3013 3013 3014 3014 3014 3014 3015 3015 3015 3016 3016 3017 3017 3017 3017 3018 3018 3019 3019 3019 3019 3019 3020 3020 3020 3020 3020 3021 3021 3022 3022 3022 3022 3022 3022 3022 3022 3022 3022 3022 3022 3022 3022 3022 3022 3022 3022 3022 3022 3022 3022 3022 3023 3023 3023 3023 3023 3023 3023 3024
3013 3013 3013 3013 3013 3013 3013 3013 3013 3013 3013 3013 3014 3014 3014 3014 3015 3015 3015 3015 3016 3016 3016 3016 3016 3017 3017 3017 3017 3018 3018 3018 3018 3018 3018 3019 3019 3019 3020 3020 3020 3020 3020 3020 3020 3020 3019 3019 3019 3019 3019 3019 3019 3019 3019 3020 3020 3020 3020 3020 3020 3020 3020 3020 3020 3020 3020 3020 3021
3013 3013 3013 3013 3013 3013 3013 3013 3013 3013 3013 3013 3013 3013 3014 3014 3014 3014 3015 3015 3015 3015 3015 3015 3015 3015 3016 3016 3016 3016 3016 3016 3016 3017 3017 3017 3017 3018 3018 3018 3018 3018 3018 3018 3018 3017 3017 3017 3016 3016 3016 3016 3016 3016 3017 3017 3018 3018 3018 3017 3017 3017 3017 3017 3017 3018 3018 3018 3018
3012 3013 3013 3013 3013 3013 3013 3012 3012 3012 3012 3013 3013 3013 3013 3013 3013 3013 3014 3014 3014 3014 3014 3014 3014 3014 3015 3015 3015 3015 3015 3015 3015 3015 3015 3015 3015 3016 3016 3016 3016 3016 3016 3016 3016 3015 3015 3014 3014 3014 3014 3014 3014 3014 3014 3015 3015 3015 3015 3015 3015 3015 3015 3015 3015 3015 3015 3015 3016
3012 3012 3012 3012 3012 3012 3012 3012 3012 3012 3012 3012 3012 3012 3012 3012 3012 3012 3012 3012 3012 3012 3012 3013 3013 3013 3013 3013 3013 3013 3013 3013 3013 3013 3013 3013 3013 3013 3013 3014 3014 3014 3014 3014 3013 3013 3012 3012 3011 3011 3011 3011 3011 3011 3011 3012 3012 3012 3012 3012 3012 3012 3012 3012 3012 3013 3013 3013 3013
3011 3011 3011 3011 3011 3011 3010 3010 3010 3010 3010 3010 3011 3011 3011 3011 3011 3011 3011 3011 3011 3011 3011 3011 3010 3010 3011 3011 3010 3010 3010 3010 3011 3011 3011 3011 3011 3011 3011 3011 3011 3011 3011 3010 3010 3010 3010 3009 3009 3009 3008 3008 3009 3009 3009 3009 3009 3009 3009 3009 3009 3009 3009 3010 3010 3010 3010 3010 3010
3010 3010 3010 3010 3009 3009 3009 3009 3009 3009 3009 3009 3009 3009 3009 3010 3010 3010 3010 3009 3009 3009 3009 3009 3009 3009 3009 3009 3008 3008 3008 3008 3008 3008 3008 3008 3008 3008 3008 3008 3008 3008 3008 3008 3007 3007 3007 3007 3006 3006 3006 3006 3006 3006 3006 3006 3006 3006 3006 3006 3006 3006 3007 3007 3007 3008 3008 3008 3008
3009 3009 3008 3008 3008 3008 3008 3008 3008 3008 3008 3008 3008 3008 3008 3008 3007 3007 3007 3007 3007 3007 3007 3007 3007 3007 3006 3006 3006 3006 3006 3005 3005 3005 3005 3005 3005 3005 3005 3005 3005 3005 3005 3005 3005 3004 3004 3004 3004 3004 3003 3003 3003 3003 3003 3003 3003 3003 3003 3003 3003 3004 3004 3004 3004 3005 3005 3005 3005
3008 3007 3007 3007 3007 3007 3007 3006 3006 3006 3006 3006 3006 3006 3006 3005 3005 3005 3005 3005 3005 3005 3004 3004 3004 3004 3004 3004 3004 3004 3003 3003 3003 3003 3002 3002 3002 3002 3002 3002 3002 3002 3002 3002 3001 3001 3001 3001 3001 3001 3000 3000 3000 3000 3000 3000 3000 3000 3000 3000 3000 3001 3001 3001 3001 3001 3002 3002 3002
3007 3006 3006 3006 3006 3005 3005 3005 3005 3005 3005 3004 3004 3004 3004 3003 3003 3003 3003 3002 3002 3002 3002 3001 3001 3001 3001 3000 3000 3000 3000 3000 3000 3000 2999 2999 2999 2999 2999 2999 2999 2999 2999 2998 2998 2998 2998 2998 2998 2997 2997 2997 2997 2997 2996 2997 2997 2997 2997 2997 2997 2998 2998 2998 2998 2998 2999 2999 2999
3005 3005 3005 3005 3004 3004 3004 3003 3003 3003 3003 3002 3002 3002 3001 3001 3001 3000 3000 3000 3000 3000 2999 2999 2998 2998 2998 2997 2997 2997 2997 2996 2996 2996 2996 2996 2995 2995 2995 2995 2995 2995 2995 2995 2995 2995 2994 2994 2994 2994 2994 2993 2993 2993 2993 2993 2993 2993 2993 2994 2994 2994 2994 2995 2995 2995 2995 2996 2996
3005 3004 3004 3003 3003 3002 3002 3002 3001 3001 3000 3000 3000 2999 2999 2999 2998 2998 2998 2997 2997 2997 2996 2996 2995 2995 2995 2995 2994 2994 2993 2993 2993 2992 2992 2992 2992 2992 2992 2992 2992 2991 2991 2991 2991 2990 2990 2990 2990 2990 2990 2990 2989 2989 2989 2989 2989 2989 2989 2990 2990 2990 2991 2991 2991 2991 2992 2992 2992
3004 3004 3003 3002 3002 3001 3000 3000 3000 2999 2998 2998 2997 2997 2996 2996 2995 2995 2995 2995 2994 2994 2993 2993 2993 2992 2992 2991 2991 2990 2990 2990 2989 2989 2988 2988 2988 2988 2987 2987 2987 2987 2987 2987 2987 2986 2986 2986 2986 2986 2985 2985 2985 2985 2985 2985 2985 2985 2985 2985 2985 2986 2986 2987 2987 2988 2988 2988 2989
3003 3003 3002 3001 3001 3000 3000 2999 2998 2997 2997 2996 2995 2995 2994 2994 2993 2992 2992 2992 2991 2991 2990 2990 2989 2989 2988 2988 2987 2987 2986 2986 2986 2985 2985 2984 2984 2984 2984 2983 2983 2983 2983 2983 2982 2982 2982 2982 2981 2981 2981 2980 2980 2980 2980 2980 2980 2980 2980 2981 2981 2982 2982 2983 2983 2984 2984 2985 2985
3002 3001 3000 3000 2999 2999 2998 2997 2997 2996 2995 2995 2994 2993 2992 2992 2991 2990 2990 2989 2989 2988 2987 2986 2986 2985 2985 2984 2984 2983 2983 2982 2982 2981 2981 2980 2980 2980 2980 2980 2979 2979 2979 2978 2978 2978 2977 2977 2977 2976 2976 2976 2975 2975 2975 2975 2975 2975 2976 2976 2977 2977 2978 2978 2979 2979 2980 2980 2981
2999 2999 2998 2998 2997 2996 2995 2995 2994 2994 2993 2992 2991 2990 2990 2989 2988 2988 2987 2986 2986 2985 2984 2984 2983 2982 2981 2980 2980 2979 2979 2978 2978 2977 2976 2976 2976 2975 2975 2975 2975 2975 2975 2974 2974 2973 2973 2972 2972 2972 2971 2971 2970 2970 2970 2970 2970 2970 2971 2971 2972 2972 2973 2974 2974 2975 2975 2976 2976
2996 2995 2995 2994 2994 2993 2992 2992 2991 2990 2990 2989 2988 2987 2987 2986 2985 2985 2984 2983 2982 2982 2981 2980 2980 2979 2978 2977 2977 2976 2975 2975 2974 2973 2972 2972 2971 2971 2970 2970 2971 2971 2970 2970 2969 2969 2968 2968 2967 2967 2966 2966 2965 2965 2965 2965 2965 2965 2966 2966 2967 2967 2968 2969 2969 2970 2970 2971 2972
2992 2991 2991 2990 2990 2989 2989 2988 2987 2987 2986 2985 2985 2984 2984 2983 2982 2981 2980 2980 2979 2978 2978 2977 2976 2975 2975 2974 2973 2973 2972 2971 2970 2969 2968 2967 2967 2966 2966 2966 2966 2966 2966 2965 2965 2964 2964 2963 2963 2962 2961 2961 2960 2960 2960 2960 2960 2960 2961 2961 2962 2962 2963 2964 2964 2965 2965 2966 2967
2988 2988 2987 2986 2986 2985 2985 2985 2984 2983 2983 2982 2981 2981 2980 2980 2979 2978 2977 2976 2975 2975 2974 2973 2973 2972 2971 2970 2969 2969 2968 2967 2966 2965 2964 2963 2963 2962 2962 2961 2961 2961 2961 2961 2960 2959 2959 2959 2958 2957 2957 2956 2955 2955 2955 2955 2955 2955 2955 2956 2956 2957 2957 2958 2959 2960 2960 2961 2962
2984 2984 2983 2982 2981 2981 2980 2980 2979 2979 2978 2977 2977 2976 2976 2975 2975 2974 2973 2972 2972 2971 2970 2970 2969 2968 2967 2966 2965 2965 2964 2964 2963 2962 2960 2960 2959 2958 2957 2957 2956 2956 2956 2956 2955 2955 2954 2954 2953 2953 2952 2951 2950 2950 2950 2950 2950 2950 2950 2951 2951 2951 2952 2952 2953 2954 2955 2955 2956